Regional Weather Roundup
Issued by NWS

Home | Current Version | Previous Version | Graphics & Text | Print | Product List | Glossary On
Versions: 1 2 3 4 5 6 7 8 9 10 11 12 13 14 15 16 17 18 19 20 21 22 23 24 25 26 27 28 29 30 31 32 33 34 35 36 37 38 39 40 41 42 43 44 45 46 47 48 49 50
406
ASUS43 KLMK 231102
RWRKY
KENTUCKY REGIONAL WEATHER ROUNDUP
NATIONAL WEATHER SERVICE LOUISVILLE KY
700 AM EDT TUE MAY 23 2017

NOTE "FAIR" INDICATES FEW OR NO CLOUDS BELOW 12,000 FEET
WITH NO SIGNIFICANT WEATHER AND/OR OBSTRUCTIONS TO VISIBILITY.

KYZ001>023-026-027-061>063-070>075-231200-
WESTERN AND SOUTH CENTRAL KENTUCKY

CITY           SKY/WX    TMP DP  RH WIND       PRES   REMARKS
PADUCAH        CLOUDY    55  52  89 CALM      29.83S
HENDERSON      CLOUDY    59  54  83 E5        29.84F
OWENSBORO      CLOUDY    59  51  75 NE3       29.84F
HOPKINSVILLE   MOCLDY    61  55  80 CALM      29.82F
BOWLING GREEN  MOCLDY    61  55  81 NE3       29.83F
GLASGOW        NOT AVBL
$$

KYZ024-025-028>034-038-045-046-053-231200-
NORTH CENTRAL KENTUCKY

CITY           SKY/WX    TMP DP  RH WIND       PRES   REMARKS
LOUISVILLE/SDF CLOUDY    58  52  80 NE3       29.86F
LOUISVILLE/LOU CLOUDY    58  53  84 CALM      29.87F
FORT KNOX      CLOUDY    55  52  88 NE3       29.84F
$$

KYZ035>037-039>044-047>052-055>060-089>105-231200-
NORTHEAST KENTUCKY

CITY           SKY/WX    TMP DP  RH WIND       PRES   REMARKS
LEXINGTON      PTCLDY    56  50  80 NE3       29.89R
COVINGTON      MOCLDY    52  48  86 S5        29.90R
FRANKFORT      MOCLDY    54  50  86 CALM      29.88R
$$

KYZ054-064>069-076>088-106>120-231200-
SOUTHEAST KENTUCKY

CITY           SKY/WX    TMP DP  RH WIND       PRES   REMARKS
JACKSON        CLOUDY    56  50  80 VRB3      29.89R
LONDON         CLOUDY    56  52  86 N3        29.86F
SOMERSET       PTCLDY    54  52  94 CALM      29.85F
MIDDLESBORO    CLOUDY    58  58 100 CALM      29.86F
MONTICELLO     PTSUNNY   57  54  89 W6        29.85F
$$





USA.gov is the U.S. government's official web portal to all federal, state and local government web resources and services.